GW0900 Weather Reports


time (UTC)temp
C
wind
direction
speed
KPH
gust
KPH
rain 1hr
cm
rain 24hr
cm
rain mn
cm
humidity
%
barometer
mb
20260505194530 25 294 0.0 9.7 0.00 0.00 0.00 45 1013.7
20260505193035 25 344 1.6 8.0 0.00 0.00 0.00 46 1013.8
20260505191537 25 294 0.0 8.0 0.00 0.00 0.00 46 1013.9
20260505190109 24 289 0.0 8.0 0.00 0.00 0.00 48 1014.1
20260505184648 23 353 1.6 11.3 0.00 0.00 0.00 49 1014.2
20260505174535 23 302 1.6 14.5 0.00 0.00 0.00 52 1014.3
20260505171533 22 331 1.6 12.9 0.00 0.00 0.00 53 1014.4
20260505170106 22 210 0.0 11.3 0.00 0.00 0.00 55 1014.3
20260505164606 22 257 0.0 9.7 0.00 0.00 0.00 55 1014.3
20260505163035 21 82 0.0 9.7 0.00 0.00 0.00 58 1014.4
20260505161535 21 255 1.6 6.4 0.00 0.00 0.00 57 1014.4
20260505153034 20 46 0.0 6.4 0.00 0.00 0.00 59 1014.2
20260505124535 15 80 0.0 6.4 0.00 0.00 0.00 76 1012.7
20260505123147 16 36 0.0 6.4 0.00 0.00 0.00 74 1012.6
20260505121611 16 9 0.0 8.0 0.00 0.00 0.00 73 1012.5
20260505120036 17 62 0.0 6.4 0.00 0.00 0.00 69 1012.3
20260505114535 17 322 0.0 6.4 0.00 0.00 0.00 66 1012.3
20260505113036 17 283 0.0 6.4 0.00 0.00 0.00 67 1012.1
20260505111536 17 312 0.0 6.4 0.00 0.00 0.00 67 1011.9
20260505101535 18 243 0.0 8.0 0.00 0.00 0.00 67 1011.5
20260505100107 18 302 0.0 8.0 0.00 0.00 0.00 67 1011.4
20260505094641 18 360 0.0 9.7 0.00 0.00 0.00 67 1011.3
20260505093045 17 304 0.0 11.3 0.00 0.00 0.00 71 1011.3
20260505090110 17 290 0.0 6.4 0.00 0.00 0.00 71 1011.0
20260505084536 18 27 0.0 6.4 0.00 0.00 0.00 70 1011.0
20260505083034 18 311 0.0 9.7 0.00 0.00 0.00 69 1011.0
20260505081536 18 19 0.0 8.0 0.00 0.00 0.00 70 1010.9
20260505080145 18 324 0.0 6.4 0.00 0.00 0.00 69 1010.9
20260505074606 18 287 0.0 8.0 0.00 0.00 0.00 68 1010.7
20260505073037 18 303 0.0 4.8 0.00 0.00 0.00 69 1010.7
20260505070036 17 343 0.0 4.8 0.00 0.00 0.00 72 1010.5
20260505064533 19 340 0.0 4.8 0.00 0.00 0.00 66 1010.4
20260505063030 20 299 0.0 4.8 0.00 0.00 0.00 59 1010.3
20260505061536 20 280 1.6 14.5 0.00 0.00 0.00 60 1010.2
20260505060035 21 281 1.6 9.7 0.00 0.00 0.00 56 1010.1
20260505054607 21 286 1.6 12.9 0.00 0.00 0.00 53 1010.0
20260505053033 22 286 1.6 12.9 0.00 0.00 0.00 51 1009.9
20260505051538 22 287 1.6 12.9 0.00 0.00 0.00 51 1009.8
20260505041536 22 239 0.0 8.0 0.00 0.00 0.00 48 1009.2
20260505040144 22 282 0.0 16.1 0.00 0.00 0.00 47 1008.9
20260505034533 23 288 0.0 9.7 0.00 0.00 0.00 48 1008.8
20260505033032 23 295 0.0 8.0 0.00 0.00 0.00 46 1008.5
20260505031608 23 281 1.6 12.9 0.00 0.00 0.00 46 1008.4
20260505030038 24 287 1.6 12.9 0.00 0.00 0.00 45 1008.2
20260505024605 25 269 3.2 19.3 0.00 0.00 0.00 44 1008.0
20260505023036 25 285 1.6 12.9 0.00 0.00 0.00 43 1007.9
20260505021642 25 281 1.6 8.0 0.00 0.00 0.00 43 1007.9
20260505014534 27 283 1.6 8.0 0.00 0.00 0.00 41 1007.8
20260505013036 27 282 1.6 8.0 0.00 0.00 0.00 39 1007.7
20260505011536 28 287 1.6 11.3 0.00 0.00 0.00 39 1007.7
20260505010035 28 281 0.0 6.4 0.00 0.00 0.00 39 1007.7
20260505004535 28 281 1.6 9.7 0.00 0.00 0.00 37 1007.6
20260505001534 28 296 1.6 17.7 0.00 0.00 0.00 37 1007.7
20260505000432 -17 0 0.0 0.0 0.00 0.00 0.00 100